Regional Weather Roundup
Issued by NWS

Home | Current Version | Previous Version | Graphics & Text | Print | Product List | Glossary On
Versions: 1 2 3 4 5 6 7 8 9 10 11 12 13 14 15 16 17 18 19 20 21 22 23 24 25 26 27
000
ASUS45 KBOI 220810
RWRID

IDAHO REGIONAL WEATHER ROUNDUP
NATIONAL WEATHER SERVICE BOISE ID
200 AM MDT TUE AUG 22 2017

NOTE: "FAIR" INDICATES FEW OR NO CLOUDS BELOW 12000 FEET
WITH NO SIGNIFICANT WEATHER AND/OR OBSTRUCTIONS TO VISIBILITY

IDZ012-014-220900-
SOUTHWEST IDAHO


CITY           SKY/WX    TMP DP  RH WIND       PRES   REMARKS
BOISE          CLEAR     66  39  37 SE10      30.06S
CALDWELL       CLEAR     59  50  72 CALM      30.05R
MOUNTAIN HOME  CLEAR     58  38  49 E5        30.07S
$$

IDZ016-017-220900-
SOUTHCENTRAL IDAHO


CITY           SKY/WX    TMP DP  RH WIND       PRES   REMARKS
BURLEY         CLEAR     52  39  61 SE3       30.16R
JEROME         CLEAR     59  40  49 SE6       30.16S
TWIN FALLS     CLEAR     59  36  42 S9        30.16S
$$

IDZ019>023-220900-
SOUTHEAST IDAHO


CITY           SKY/WX    TMP DP  RH WIND       PRES   REMARKS
IDAHO FALLS    CLEAR     48  42  80 N5        30.22R
POCATELLO      CLEAR     55  36  48 E3        30.20R
REXBURG        CLEAR     50  41  71 NE3       30.22S
$$

IDZ006-010-011-018-031-032-220900-
CENTRAL IDAHO MOUNTAINS


CITY           SKY/WX    TMP DP  RH WIND       PRES   REMARKS
MCCALL         CLEAR     53  39  59 CALM      30.20R
HAILEY         CLEAR     55  37  50 NW8       30.26S
STANLEY          N/A     43  31  62 S3        30.33R
SALMON         CLEAR     51  38  60 CALM      30.19R
CHALLIS        CLEAR     54  36  50 CALM      30.22R
$$

IDZ002-004-006-007-026-220900-
NORTHERN IDAHO


CITY           SKY/WX    TMP DP  RH WIND       PRES   REMARKS
LEWISTON       CLEAR     66  38  35 SE6       30.01S
LOWELL           N/A     57  49  74 CALM      30.10R
COEUR D`ALENE  CLEAR     57  43  59 E5        30.09S
MULLAN PASS    CLEAR     60  34  37 VRB3      30.27F
$$




USA.gov is the U.S. government's official web portal to all federal, state and local government web resources and services.